Wind_Speed
8 7 7 8 8 8 9 9 10 10 11 11 12 12 13 13 14 15 15 16 16 16 17 18 19 19 21 22 23 24 25 26 26 27 28 29 30 30
9 8 8 9 9 9 10 10 11 11 12 12 13 13 14 15 16 16 17 17 18 18 19 20 20 21 22 23 25 26 27 28 29 30 31 31 32 33
10 10 10 10 11 11 11 11 12 13 13 14 14 15 16 16 17 17 18 19 20 20 21 22 23 24 25 26 27 28 29 30 32 33 34 35 35 35
12 12 12 12 12 12 12 12 13 14 14 15 16 16 17 18 18 19 20 21 21 22 23 24 25 26 27 29 30 31 32 33 34 35 36 37 37 38
13 13 13 13 13 14 14 14 14 14 15 16 17 18 19 20 20 21 22 23 23 24 26 27 28 29 30 31 32 33 34 35 36 37 37 38 38 38
15 14 14 14 14 15 15 15 16 17 18 18 19 20 21 22 23 23 24 25 26 27 28 29 30 32 33 34 35 36 37 38 38 38 39 39 39 39
16 16 16 16 17 17 17 17 18 19 20 21 21 22 23 24 25 26 27 28 28 29 30 31 33 34 35 36 37 38 39 40 40 40 40 40 40 41
17 18 17 18 18 19 19 20 21 22 22 23 23 24 25 25 26 27 28 29 31 32 33 35 36 37 38 39 40 41 42 42 42 42 42 42 42 42
19 19 19 19 20 21 21 22 23 23 24 25 25 26 26 27 28 29 30 32 33 35 35 37 38 39 40 41 42 43 43 43 43 43 44 44 44 45
20 20 21 21 21 22 22 23 24 24 25 26 27 28 29 29 31 32 33 34 35 37 38 39 40 41 42 43 44 44 44 44 44 44 45 45 46 46
21 22 22 22 22 23 24 24 25 26 27 29 29 30 31 32 33 34 35 36 37 38 39 40 41 43 43 44 44 44 44 44 44 45 45 46 47 47
22 22 22 22 23 24 25 26 27 28 29 30 31 32 33 34 35 36 37 38 39 40 41 42 43 44 44 44 45 45 46 46 46 46 46 46 46 47
21 22 22 23 24 25 26 27 28 29 30 32 33 34 35 35 37 38 39 40 41 42 43 44 45 46 46 44 45 46 46 46 46 46 45 45 46 46
22 22 23 24 25 26 28 28 29 31 32 33 34 35 36 37 38 40 41 41 42 43 45 46 46 46 46 45 46 45 45 45 45 45 46 46 46 46
22 23 24 25 26 28 29 30 31 32 33 34 35 36 37 39 40 41 42 42 44 45 45 45 46 46 46 46 45 45 45 45 46 46 46 46 46 47
23 24 25 26 27 29 30 31 32 33 34 35 36 37 39 40 40 41 42 43 44 45 45 45 45 45 45 45 44 44 45 45 46 46 46 46 47 47
23 25 26 27 28 29 30 31 33 34 35 36 37 38 39 40 40 41 43 44 45 45 45 45 45 45 44 44 44 45 46 46 47 47 47 47 47 47
24 25 26 27 28 29 31 32 33 34 35 37 37 38 39 40 41 43 44 44 45 45 45 45 44 44 45 45 46 46 47 48 48 48 47 47 47 47
25 26 28 29 29 30 32 33 34 35 36 37 38 39 40 41 42 43 43 44 44 44 44 44 45 45 46 46 47 48 49 49 49 48 47 47 46 46
27 28 29 30 31 32 33 34 35 36 37 37 38 39 40 41 42 42 43 43 43 44 44 45 45 46 46 47 48 49 49 49 49 48 47 46 45 45
29 30 31 32 32 33 34 35 35 36 37 38 39 40 41 42 42 42 43 43 44 44 44 45 46 46 47 48 49 48 48 49 49 48 47 46 44 43
30 31 32 33 34 35 35 36 36 37 39 39 40 40 41 42 42 43 44 44 45 45 45 46 46 46 47 47 48 48 48 48 47 47 46 45 44 42
32 32 33 34 35 35 36 37 37 38 39 39 40 40 40 41 42 43 45 45 45 45 45 46 46 46 46 47 47 48 48 47 45 44 44 43 43 42
Wind_Direction
287 288 291 293 294 294 294 294 297 300 300 301 302 302 304 305 305 304 303 303 302 301 301 301 300 298 296 296 294 293 291 291 290 289 288 286 285 284
288 290 292 293 293 295 294 294 295 297 298 299 301 302 302 304 305 305 305 305 305 304 302 301 301 301 301 298 297 296 295 293 292 291 289 288 287 285
282 285 287 292 292 292 292 292 294 297 300 301 303 304 304 303 304 304 303 303 303 303 303 302 302 302 302 302 301 298 296 295 293 291 290 289 288 286
281 283 285 288 288 289 291 292 295 297 300 302 303 304 304 303 301 302 302 302 302 302 302 301 301 301 300 300 300 299 298 296 294 292 291 290 288 287
280 283 286 288 287 288 290 291 293 294 297 299 300 301 302 303 303 301 300 300 300 300 300 300 300 300 300 300 299 298 298 298 296 293 292 290 289 287
278 280 283 285 287 290 293 293 295 295 296 298 300 300 301 302 302 301 300 299 300 301 301 301 300 300 300 300 299 299 299 298 296 295 293 292 291 289
277 279 280 283 286 288 290 292 294 296 296 296 298 299 301 301 301 301 300 300 301 301 301 301 301 301 301 301 300 299 299 298 296 294 293 292 291 290
278 279 280 283 285 287 289 291 292 294 296 297 297 298 300 301 301 301 301 301 301 301 300 300 301 301 301 301 301 300 299 298 296 295 293 292 291 289
280 280 281 283 286 288 289 291 293 294 296 297 298 298 299 300 301 301 300 300 300 300 301 301 301 301 302 302 302 301 300 299 298 296 294 293 292 290
280 281 281 282 285 288 290 291 293 295 296 297 299 299 299 300 301 301 301 301 301 301 302 302 302 302 302 303 302 301 300 300 299 297 296 293 292 291
281 280 279 281 285 288 290 292 293 295 296 297 299 299 299 300 301 301 301 302 303 303 304 303 303 303 303 303 302 301 301 299 298 298 297 295 293 291
283 283 282 283 286 288 291 292 294 295 297 298 298 299 299 300 301 302 303 303 304 304 304 304 304 303 303 303 302 301 301 300 299 299 298 297 295 293
284 284 284 285 288 290 291 293 295 296 297 299 299 300 300 302 303 303 304 305 305 305 305 305 305 305 304 303 303 302 302 301 300 300 299 299 298 296
285 286 286 287 289 292 293 293 295 296 298 299 300 301 302 303 304 304 305 306 306 306 306 306 306 306 305 305 304 303 302 302 302 301 301 301 299 299
286 288 289 289 290 292 293 294 296 298 299 300 301 301 302 303 304 304 305 306 307 307 308 307 307 307 307 307 306 304 303 303 303 303 302 301 300 300
288 289 291 291 293 294 295 295 297 299 300 301 302 302 303 304 305 305 306 307 308 308 308 308 308 308 308 308 308 306 305 305 305 304 304 303 302 301
290 292 292 292 294 296 297 297 298 299 301 303 304 304 304 305 305 307 308 308 309 309 309 309 309 309 309 309 309 308 308 307 306 305 304 304 303 302
292 294 295 296 297 297 298 299 300 301 302 304 304 305 306 307 307 308 308 309 309 309 309 309 309 309 309 310 310 309 309 308 308 307 306 305 304 302
293 294 296 298 299 299 300 302 302 302 302 304 306 307 307 307 308 308 309 309 309 309 309 309 310 310 310 310 311 310 310 310 309 308 307 306 305 304
293 294 297 299 300 300 301 302 303 303 304 305 306 307 307 308 308 309 309 310 310 310 310 310 310 310 311 311 311 311 311 311 310 309 308 307 306 304
293 295 297 298 299 300 301 302 303 303 304 305 306 307 307 308 308 308 309 309 309 309 309 310 310 311 311 312 312 312 312 311 310 310 309 308 307 306
294 296 297 298 299 300 301 302 302 303 304 305 306 307 308 309 308 308 308 308 308 308 309 310 311 311 312 312 313 313 313 312 311 311 310 310 309 309
293 296 298 299 300 300 301 301 302 303 304 305 307 308 309 310 309 309 309 309 308 309 309 310 311 312 312 312 313 314 314 314 313 313 313 311 310 310
Height
5866 5865 5864 5863 5863 5861 5860 5859 5858 5857 5855 5854 5852 5850 5849 5847 5845 5843 5841 5839 5838 5836 5834 5832 5830 5828 5826 5824 5822 5820 5819 5817 5815 5813 5811 5809 5808 5806
5864 5863 5862 5861 5860 5859 5858 5857 5855 5854 5853 5851 5849 5848 5846 5844 5842 5840 5838 5836 5834 5832 5830 5828 5826 5824 5821 5819 5817 5815 5812 5810 5808 5806 5804 5801 5799 5797
5861 5860 5859 5858 5857 5856 5855 5854 5852 5851 5850 5848 5846 5844 5842 5841 5838 5836 5834 5832 5830 5828 5825 5823 5821 5818 5816 5813 5811 5808 5806 5803 5800 5797 5795 5792 5790 5788
5858 5857 5856 5855 5854 5853 5852 5851 5849 5848 5846 5844 5842 5840 5839 5837 5834 5832 5830 5827 5825 5823 5820 5818 5815 5812 5809 5806 5804 5801 5798 5794 5791 5788 5785 5782 5779 5777
5854 5853 5852 5851 5851 5849 5848 5847 5845 5844 5842 5840 5838 5836 5834 5832 5830 5827 5825 5822 5819 5817 5814 5811 5808 5805 5802 5799 5796 5792 5789 5785 5781 5777 5774 5771 5768 5765
5850 5849 5849 5848 5847 5846 5844 5843 5841 5840 5838 5836 5834 5831 5829 5827 5824 5822 5819 5816 5813 5810 5807 5804 5801 5797 5794 5790 5787 5783 5779 5775 5771 5767 5763 5760 5756 5753
5846 5845 5844 5843 5842 5841 5840 5838 5837 5835 5833 5831 5829 5826 5824 5821 5818 5815 5813 5810 5806 5803 5800 5796 5793 5789 5785 5781 5777 5772 5768 5764 5759 5755 5751 5748 5745 5742
5841 5841 5840 5839 5838 5836 5835 5833 5832 5830 5828 5825 5823 5821 5818 5815 5812 5809 5805 5802 5799 5796 5792 5788 5783 5779 5774 5770 5766 5761 5756 5751 5747 5743 5739 5735 5732 5729
5836 5835 5834 5833 5832 5831 5829 5828 5826 5824 5822 5819 5817 5814 5811 5808 5805 5802 5798 5794 5790 5786 5782 5778 5774 5769 5764 5759 5754 5749 5744 5739 5734 5729 5726 5722 5718 5715
5830 5829 5828 5828 5826 5825 5823 5822 5820 5817 5815 5812 5810 5807 5804 5800 5797 5794 5790 5786 5781 5777 5772 5768 5763 5758 5753 5747 5741 5736 5731 5726 5721 5717 5712 5708 5704 5700
5824 5823 5822 5821 5820 5818 5817 5815 5813 5811 5808 5805 5802 5799 5796 5792 5788 5785 5781 5777 5772 5768 5762 5758 5752 5747 5741 5735 5729 5723 5718 5713 5708 5703 5699 5694 5690 5685
5818 5817 5816 5815 5814 5812 5810 5808 5806 5803 5800 5797 5794 5791 5787 5783 5780 5775 5771 5767 5762 5757 5752 5746 5741 5735 5730 5724 5717 5711 5706 5701 5695 5690 5685 5680 5675 5670
5812 5811 5810 5808 5807 5805 5803 5801 5798 5795 5792 5789 5786 5782 5778 5774 5770 5766 5761 5756 5751 5745 5740 5735 5729 5722 5716 5711 5705 5699 5693 5687 5682 5677 5671 5666 5661 5656
5806 5805 5803 5802 5800 5798 5795 5793 5790 5787 5784 5780 5777 5773 5769 5765 5760 5755 5750 5745 5739 5734 5728 5722 5716 5710 5703 5698 5692 5686 5680 5674 5668 5663 5658 5653 5647 5642
5800 5798 5797 5795 5793 5790 5787 5785 5782 5779 5775 5772 5768 5764 5759 5755 5750 5745 5739 5734 5728 5722 5716 5709 5703 5697 5691 5685 5679 5673 5668 5662 5656 5650 5645 5639 5633 5628
5793 5792 5790 5787 5785 5782 5779 5776 5773 5770 5766 5762 5758 5754 5749 5744 5739 5734 5729 5723 5717 5711 5704 5697 5691 5685 5679 5673 5667 5661 5655 5649 5644 5637 5631 5625 5619 5613
5786 5784 5782 5780 5777 5774 5771 5768 5764 5761 5757 5753 5748 5744 5739 5734 5729 5723 5718 5712 5706 5699 5693 5686 5680 5673 5667 5661 5655 5649 5643 5637 5631 5624 5618 5612 5606 5600
5780 5777 5775 5772 5769 5766 5763 5759 5755 5752 5748 5743 5739 5734 5729 5724 5718 5713 5707 5700 5694 5688 5681 5675 5669 5663 5657 5650 5644 5637 5631 5625 5618 5611 5605 5599 5593 5587
5772 5770 5767 5764 5761 5758 5754 5751 5747 5743 5738 5734 5729 5724 5719 5713 5708 5702 5696 5690 5684 5677 5670 5664 5658 5652 5646 5640 5633 5625 5618 5612 5605 5599 5592 5585 5580 5574
5765 5762 5759 5756 5753 5749 5746 5742 5738 5733 5729 5724 5719 5714 5709 5703 5697 5691 5685 5679 5673 5666 5660 5653 5647 5640 5634 5628 5621 5614 5606 5598 5591 5585 5579 5572 5566 5561
5757 5754 5751 5747 5744 5740 5737 5733 5728 5724 5719 5714 5709 5704 5699 5693 5687 5681 5675 5668 5662 5655 5649 5643 5636 5629 5622 5616 5609 5602 5594 5586 5579 5572 5565 5560 5554 5549
5748 5745 5742 5739 5735 5731 5727 5723 5719 5714 5709 5704 5699 5694 5688 5682 5676 5670 5664 5657 5651 5644 5638 5631 5625 5618 5611 5604 5597 5590 5583 5575 5567 5560 5552 5546 5540 5535
5739 5736 5733 5729 5726 5722 5717 5713 5709 5704 5699 5694 5689 5683 5677 5671 5665 5659 5653 5646 5640 5633 5627 5620 5614 5607 5600 5593 5586 5579 5571 5564 5557 5550 5543 5535 5529 5523